Weather History for Belize, Belize

Change the Weather History Date:

Tuesday, September 17, 2013

  Actual Average Record
Temperature  
Mean Temperature 78 °F -  
Max Temperature 82 °F 87 °F 89 °F (1996)
Min Temperature 75 °F 74 °F 75 °F (1997)
Cooling Degree Days 14    
Growing Degree Days 28 (Base 50)    
Moisture  
Dew Point 68 °F    
Average Humidity 78    
Maximum Humidity 100    
Minimum Humidity 19    
Precipitation  
Precipitation 0.87 in 0.35 in - ()
Sea Level Pressure  
Sea Level Pressure 29.75 in    
Wind  
Wind Speed 2 mph ()    
Max Wind Speed 8 mph    
Max Gust Speed -    
Visibility 5.2 miles    
Events Rain    
Averages and records for this station are not official NWS values.
T = Trace of Precipitation, MM = Missing Value Source: Averaged Metar Reports

Daily Weather History Graph

Daily Weather History Graph

Search for Another Location

Airport:

Trip Planner

Search our weather history database for the weather conditions in past years. The results will help you decide how hot, cold, wet, or windy it might be!

Date:

Astronomy

Sep. 17, 2013 Rise Set
Actual Time 5:41 AM CST 5:53 PM CST
Civil Twilight 5:19 AM CST 6:15 PM CST
Nautical Twilight 4:54 AM CST 6:40 PM CST
Astronomical Twilight 4:29 AM CST 7:05 PM CST
Moon 4:33 PM CST (9/17) 3:48 AM CST (9/17)
Length of Visible Light 12h 55m
Length of Day
12h 11m
Waxing Gibbous, 96% of the Moon is Illuminated
Sep 17
Waxing Gibbous
Sep 19
Full
Sep 26
Last Quarter
Oct 4
New
Oct 11
First Quarter

Hourly Weather History & Observations

Time (CST) Temp. Heat Index Dew Point Humidity Pressure Visibility Wind Dir Wind Speed Gust Speed Precip Events Conditions
3:00 AM 78 °F - 77 °F 94% 29.74 in 12 mi Calm Calm - -   Mostly Cloudy
5:00 AM 77.0 °F - 77.0 °F 100% 29.73 in 6.2 mi Calm Calm - N/A Rain Light Rain Showers
6:00 AM 78 °F - 76 °F 93% 29.75 in 7 mi Calm Calm - - Rain Light Rain
6:00 AM 77.0 °F - 77.0 °F 100% 29.74 in 6.2 mi Calm Calm - N/A Rain Light Rain
7:00 AM 77.0 °F - 77.0 °F 100% 29.77 in 6.2 mi WNW 3.5 mph - N/A Rain Light Rain
8:00 AM 78.8 °F - 77.0 °F 94% 29.77 in 6.2 mi Calm Calm - N/A Rain Light Rain
8:34 AM 78.8 °F - 35.6 °F 21% 29.79 in 5.0 mi WNW 3.5 mph - N/A Rain Light Rain
9:00 AM 78 °F - 77 °F 96% 29.80 in 5 mi 2.3 mph - - Rain Light Rain
9:00 AM 78.8 °F - 77.0 °F 94% 29.79 in 5.0 mi Variable 2.3 mph - N/A Rain Light Rain
9:20 AM 78.8 °F - 77.0 °F 94% 29.80 in 3.7 mi NW 4.6 mph - N/A Rain Light Rain
9:27 AM 78.8 °F - 77.0 °F 94% 29.80 in 1.9 mi NNW 4.6 mph - N/A Rain Rain
10:00 AM 77.0 °F - 77.0 °F 100% 29.81 in 1.6 mi NW 3.5 mph - N/A Rain Rain
10:19 AM 77.0 °F - 35.6 °F 22% 29.80 in 0.9 mi WSW 4.6 mph - N/A Rain Heavy Rain
10:29 AM 77.0 °F - 35.6 °F 22% 29.80 in 5.0 mi SSW 3.5 mph - N/A Rain Light Rain
11:00 AM 77.0 °F - 77.0 °F 100% 29.81 in 4.3 mi Variable 2.3 mph - N/A Rain Light Rain
12:00 PM 78 °F - 77 °F 96% 29.77 in 12 mi SW 3.5 mph - - Rain Light Rain
12:00 PM 78.8 °F - 35.6 °F 21% 29.76 in 6.2 mi SW 3.5 mph - N/A Rain Light Rain
1:00 PM 80.6 °F 88.1 °F 78.8 °F 94% 29.73 in 6.2 mi SSW 3.5 mph - N/A Rain Light Rain
2:00 PM 80.6 °F - 35.6 °F 20% 29.71 in 3.7 mi South 3.5 mph - N/A Rain Light Rain
3:00 PM 82 °F - 78 °F 83% 29.70 in 12 mi South 4.6 mph - - Rain Light Rain
3:00 PM 82.4 °F - 35.6 °F 19% 29.69 in 6.2 mi South 4.6 mph - N/A Rain Light Rain
4:00 PM 80.6 °F 87.1 °F 77.0 °F 89% 29.69 in 4.3 mi SSE 4.6 mph - N/A   Mostly Cloudy
4:24 PM 80.6 °F - - N/A% 29.70 in 2.5 mi SW 5.8 mph - N/A Rain Rain Showers
4:33 PM 80.6 °F - - N/A% 29.71 in 1.2 mi West 8.1 mph - N/A Rain Rain Showers
4:43 PM - - 77.0 °F N/A% 29.72 in 0.9 mi West 6.9 mph - N/A Rain Heavy Rain Showers
5:00 PM - - 73.4 °F N/A% 29.72 in 0.6 mi WSW 4.6 mph - N/A Rain Heavy Rain Showers
5:13 PM 78.8 °F - 73.4 °F 83% 2.97 in 1.2 mi SW 6.9 mph - N/A Rain Heavy Rain Showers
5:30 PM 78.8 °F - 73.4 °F 83% 2.97 in 3.1 mi South 3.5 mph - N/A Rain Light Rain Showers
6:00 PM 75 °F - 74 °F 97% 29.73 in 9 mi South 3.5 mph - - Rain Light Rain
7:00 PM 75.2 °F - 75.2 °F 100% 29.74 in 5.6 mi SSE 5.8 mph - N/A Rain Light Rain
9:00 PM 78 °F - 76 °F 94% 29.78 in 9 mi SSE 5.8 mph - - Rain Light Rain